Location: Allen Generating Plant
(35.0740°N, 90.1490°W)
Time: 13:07:13
(UTC+00:00)

Tiros 1 despin weight - All Passes

Search period start: 07 November 2024 00:00
Search period end: 17 November 2024 00:00
Orbit: 571 x 611 km, 48.2° (Epoch: 06 November)

Date Brightness Start Highest point End Pass type
(mag) Time Alt. Az. Time Alt. Az. Time Alt. Az.
07 Nov - 11:31:41 10° SW 11:36:06 71° SE 11:40:28 10° ENE visible
07 Nov - 13:13:39 10° W 13:17:20 26° NNW 13:21:01 10° NE daylight
07 Nov - 14:57:04 10° NW 14:59:26 14° N 15:01:49 10° NNE daylight
07 Nov - 16:38:25 10° NNW 16:41:40 20° NNE 16:44:54 10° ENE daylight
07 Nov - 18:18:51 10° NW 18:23:09 75° NE 18:27:25 10° ESE daylight
07 Nov - 20:01:08 10° W 20:03:38 15° SW 20:06:08 10° SSW daylight
08 Nov - 10:00:09 10° S 10:03:14 18° SE 10:06:18 10° E visible
08 Nov - 11:39:25 10° WSW 11:43:50 67° NW 11:48:11 10° NE visible
08 Nov - 13:22:08 10° WNW 13:25:22 20° NNW 13:28:35 10° NNE daylight
08 Nov - 15:05:12 10° NNW 15:07:37 14° N 15:10:01 10° NE daylight
08 Nov - 16:45:58 10° NW 16:49:41 27° NNE 16:53:21 10° E daylight
08 Nov - 18:26:36 10° WNW 18:30:51 61° SW 18:35:03 10° SE daylight
09 Nov - 10:06:45 10° SSW 10:10:44 33° SE 10:14:43 10° ENE visible
09 Nov - 11:47:25 10° W 11:51:37 41° NNW 11:55:47 10° NE visible
09 Nov - 13:30:39 10° NW 13:33:26 16° N 13:36:12 10° NNE daylight
09 Nov - 15:13:01 10° NNW 15:15:44 16° N 15:18:25 10° NE daylight
09 Nov - 16:53:29 10° NW 16:57:34 40° NNE 17:01:37 10° E daylight
09 Nov - 18:34:34 10° WNW 18:38:26 33° SW 18:42:16 10° SSE daylight
10 Nov - 10:13:55 10° SW 10:18:18 60° SE 10:22:39 10° ENE visible
10 Nov - 11:55:38 10° W 11:59:29 28° NNW 12:03:18 10° NE visible
10 Nov - 13:39:03 10° NW 13:41:32 15° N 13:43:59 10° NNE daylight
10 Nov - 15:20:37 10° NNW 15:23:47 19° NNE 15:26:55 10° ENE daylight
10 Nov - 17:01:02 10° NW 17:05:21 65° NE 17:09:36 10° ESE daylight
10 Nov - 18:42:57 10° W 18:45:54 18° SW 18:48:50 10° S daylight
11 Nov - 08:42:45 10° SSE 08:45:25 16° SE 08:48:05 10° E visible
11 Nov - 10:21:29 10° WSW 10:25:56 78° NW 10:30:21 10° NE visible
11 Nov - 12:04:00 10° WNW 12:07:24 21° NNW 12:10:47 10° NNE visible
11 Nov - 13:47:11 10° NNW 13:49:37 14° N 13:52:01 10° NE daylight
11 Nov - 15:28:07 10° NW 15:31:44 25° NNE 15:35:19 10° ENE daylight
11 Nov - 17:08:41 10° WNW 17:12:59 73° SW 17:17:15 10° SE daylight
12 Nov - 08:49:00 10° SSW 08:52:50 28° SE 08:56:39 10° ENE visible
12 Nov - 10:29:20 10° WSW 10:33:38 47° NNW 10:37:54 10° NE visible
12 Nov - 12:12:26 10° NW 12:15:22 17° NNW 12:18:18 10° NNE daylight
12 Nov - 13:55:01 10° NNW 13:57:40 15° N 14:00:18 10° NE daylight
12 Nov - 15:35:34 10° NW 15:39:35 35° NNE 15:43:32 10° E daylight
12 Nov - 17:16:29 10° WNW 17:20:31 39° SW 17:24:31 10° SSE daylight
13 Nov - 08:55:58 10° SSW 09:00:18 51° SE 09:04:37 10° ENE visible
13 Nov - 10:37:24 10° W 10:41:23 31° NNW 10:45:21 10° NE visible
13 Nov - 12:20:47 10° NW 12:23:23 15° N 12:25:57 10° NNE daylight
13 Nov - 14:02:36 10° NNW 14:05:39 18° NNE 14:08:41 10° ENE daylight
13 Nov - 15:43:01 10° NW 15:47:18 56° NNE 15:51:31 10° ESE daylight
13 Nov - 17:24:38 10° W 17:27:57 22° SW 17:31:14 10° S daylight
14 Nov - 07:25:18 10° SSE 07:27:24 13° SE 07:29:29 10° E night (unlit)
14 Nov - 09:03:21 10° SW 09:07:49 90° S 09:12:17 10° NE visible
14 Nov - 10:45:39 10° WNW 10:49:13 23° NNW 10:52:46 10° NNE visible
14 Nov - 12:28:56 10° NW 12:31:23 14° N 12:33:49 10° NE daylight
14 Nov - 14:10:02 10° NNW 14:13:33 23° NNE 14:17:02 10° ENE daylight
14 Nov - 15:50:33 10° NW 15:54:54 86° SW 15:59:12 10° SE daylight
14 Nov - 17:33:48 10° WSW 17:35:15 11° SW 17:36:42 10° SSW daylight
15 Nov - 07:31:06 10° S 07:34:42 24° SE 07:38:18 10° E night (unlit)
15 Nov - 09:11:02 10° WSW 09:15:25 54° NNW 09:19:47 10° NE visible
15 Nov - 10:53:59 10° WNW 10:57:05 18° NNW 11:00:11 10° NNE visible
15 Nov - 12:36:46 10° NNW 12:39:22 15° N 12:41:56 10° NE daylight
15 Nov - 14:17:24 10° NW 14:21:21 32° NNE 14:25:14 10° E daylight
15 Nov - 15:58:12 10° WNW 16:02:23 47° SW 16:06:30 10° SSE daylight
16 Nov - 07:37:50 10° SSW 07:42:04 43° SE 07:46:18 10° ENE night (unlit)
16 Nov - 09:18:57 10° W 09:23:04 35° NNW 09:27:10 10° NE visible
16 Nov - 11:02:17 10° NW 11:04:59 16° N 11:07:42 10° NNE visible
16 Nov - 12:44:19 10° NNW 12:47:17 17° NNE 12:50:13 10° NE daylight
16 Nov - 14:24:46 10° NW 14:29:01 48° NNE 14:33:12 10° ESE daylight
16 Nov - 16:06:08 10° WNW 16:09:45 26° SW 16:13:19 10° S daylight
